IZ3ZOD-13 Weather Reports


Display with metric or nautical units.
time (UTC)temp
F
wind
direction
speed
MPH
gust
MPH
rain 1hr
in
rain 24hr
in
rain mn
in
humidity
%
barometer
mb
20260904103417 90 222 2.0 5.0 0.00 0.00 0.00 47 1019.5
20260904103016 89 186 4.0 8.0 0.00 0.00 0.00 49 1019.4
20260904102616 90 188 3.0 8.0 0.00 0.00 0.00 49 1019.5
20260904102003 90 217 2.0 3.0 0.00 0.00 0.00 52 1019.6
20260904101603 91 206 1.0 3.0 0.00 0.00 0.00 50 1019.6
20260904101203 89 200 2.0 7.0 0.00 0.00 0.00 52 1019.6
20260904100803 88 205 3.0 7.0 0.00 0.00 0.00 51 1019.6
20260904100404 89 220 4.0 6.0 0.00 0.00 0.00 53 1019.4
20260904095603 90 200 2.0 6.0 0.00 0.00 0.00 51 1019.5
20260904095203 90 140 1.0 3.0 0.00 0.00 0.00 52 1019.7
20260904094803 90 115 1.0 3.0 0.00 0.00 0.00 51 1019.6
20260904094403 89 116 1.0 3.0 0.00 0.00 0.00 50 1019.7
20260904094213 89 103 1.0 3.0 0.00 0.00 0.00 51 1019.8
20260904093813 88 68 2.0 3.0 0.00 0.00 0.00 52 1019.9
20260904093203 87 66 2.0 4.0 0.00 0.00 0.00 54 1019.8
20260904092803 88 170 1.0 4.0 0.00 0.00 0.00 53 1019.8
20260904092403 87 195 1.0 3.0 0.00 0.00 0.00 53 1020.1
20260904092003 87 137 2.0 6.0 0.00 0.00 0.00 53 1019.9
20260904091603 87 138 2.0 6.0 0.00 0.00 0.00 53 1020.0
20260904091203 87 149 2.0 6.0 0.00 0.00 0.00 51 1020.0
20260904091013 87 150 2.0 4.0 0.00 0.00 0.00 51 1020.1
20260904090613 86 144 2.0 4.0 0.00 0.00 0.00 55 1019.9
20260904090004 86 121 2.0 4.0 0.00 0.00 0.00 54 1020.0
20260904085603 86 97 2.0 4.0 0.00 0.00 0.00 54 1020.1
20260904085203 86 84 2.0 4.0 0.00 0.00 0.00 55 1020.1
20260904085015 86 79 2.0 4.0 0.00 0.00 0.00 57 1020.1
20260904084403 85 72 1.0 3.0 0.00 0.00 0.00 57 1020.0
20260904084003 85 43 1.0 3.0 0.00 0.00 0.00 58 1019.8
20260904083603 84 38 1.0 3.0 0.00 0.00 0.00 59 1020.0
20260904083203 84 38 1.0 3.0 0.00 0.00 0.00 60 1020.0
20260904083017 84 28 1.0 2.0 0.00 0.00 0.00 60 1020.0
20260904082403 83 36 2.0 3.0 0.00 0.00 0.00 59 1020.0
20260904082003 83 54 2.0 3.0 0.00 0.00 0.00 60 1019.9
20260904081603 84 64 1.0 3.0 0.00 0.00 0.00 58 1019.9
20260904081203 83 48 1.0 3.0 0.00 0.00 0.00 59 1019.9
20260904080803 83 15 1.0 2.0 0.00 0.00 0.00 60 1020.0
20260904080403 83 344 1.0 2.0 0.00 0.00 0.00 60 1020.1
20260904080003 83 335 1.0 2.0 0.00 0.00 0.00 60 1020.0
20260904075817 82 358 1.0 2.0 0.00 0.00 0.00 60 1020.1
20260904075203 82 8 1.0 3.0 0.00 0.00 0.00 62 1019.8
20260904074803 81 13 2.0 3.0 0.00 0.00 0.00 63 1019.8
20260904074403 80 8 2.0 3.0 0.00 0.00 0.00 64 1019.9
20260904074003 81 12 1.0 3.0 0.00 0.00 0.00 63 1019.9
20260904073603 80 9 1.0 3.0 0.00 0.00 0.00 63 1019.8
20260904073203 80 22 1.0 3.0 0.00 0.00 0.00 63 1019.7
20260904072803 80 16 1.0 3.0 0.00 0.00 0.00 65 1019.8
20260904072403 80 1 1.0 2.0 0.00 0.00 0.00 64 1019.9
20260904072003 80 8 1.0 3.0 0.00 0.00 0.00 64 1019.9
20260904071603 79 13 1.0 3.0 0.00 0.00 0.00 65 1019.7
20260904071203 78 26 1.0 3.0 0.00 0.00 0.00 67 1019.7
20260904070803 78 30 1.0 3.0 0.00 0.00 0.00 69 1019.7
20260904070403 78 27 1.0 3.0 0.00 0.00 0.00 70 1020.0
20260904070004 78 14 1.0 3.0 0.00 0.00 0.00 68 1019.5
20260904065603 77 2 1.0 3.0 0.00 0.00 0.00 69 1020.0
20260904065203 77 4 1.0 3.0 0.00 0.00 0.00 70 1019.6
20260904065017 76 8 1.0 3.0 0.00 0.00 0.00 72 1019.6
20260904064403 76 5 1.0 3.0 0.00 0.00 0.00 71 1019.8
20260904064003 76 359 1.0 3.0 0.00 0.00 0.00 72 1019.6
20260904063603 76 5 1.0 3.0 0.00 0.00 0.00 72 1019.7
20260904063203 76 7 1.0 3.0 0.00 0.00 0.00 71 1019.7
20260904062803 76 4 1.0 2.0 0.00 0.00 0.00 71 1019.7
20260904062403 76 2 0.0 2.0 0.00 0.00 0.00 70 1019.5
20260904062003 75 6 0.0 1.0 0.00 0.00 0.00 72 1019.6
20260904061603 75 360 0.0 1.0 0.00 0.00 0.00 73 1019.4
20260904061416 75 354 0.0 1.0 0.00 0.00 0.00 74 1019.5
20260904060803 74 354 0.0 1.0 0.00 0.00 0.00 75 1019.4
20260904060615 74 354 0.0 1.0 0.00 0.00 0.00 75 1019.6
20260904060003 73 354 0.0 1.0 0.00 0.00 0.00 76 1019.6
20260904055603 73 0 0.0 0.0 0.00 0.00 0.00 77 1019.4
20260904055203 72 0 0.0 0.0 0.00 0.00 0.00 76 1019.3
20260904054803 72 0 0.0 0.0 0.00 0.00 0.00 78 1019.4
20260904054617 72 0 0.0 0.0 0.00 0.00 0.00 78 1019.4
20260904054003 72 0 0.0 0.0 0.00 0.00 0.00 78 1019.4
20260904053603 71 330 0.0 1.0 0.00 0.00 0.00 78 1019.3
20260904053415 71 330 0.0 1.0 0.00 0.00 0.00 79 1019.4
20260904052803 71 331 0.0 1.0 0.00 0.00 0.00 79 1019.4
20260904052403 70 0 0.0 0.0 0.00 0.00 0.00 81 1019.3
20260904052003 70 307 0.0 1.0 0.00 0.00 0.00 81 1019.3
20260904051603 69 307 0.0 1.0 0.00 0.00 0.00 82 1019.2
20260904051203 69 296 0.0 1.0 0.00 0.00 0.00 82 1019.0
20260904050803 69 292 0.0 1.0 0.00 0.00 0.00 82 1019.1
20260904050403 69 276 0.0 1.0 0.00 0.00 0.00 83 1019.2
20260904050003 69 276 0.0 1.0 0.00 0.00 0.00 83 1019.1
20260904045603 69 280 0.0 1.0 0.00 0.00 0.00 83 1019.0
20260904045203 68 283 0.0 1.0 0.00 0.00 0.00 83 1019.2
20260904045013 68 288 0.0 1.0 0.00 0.00 0.00 83 1019.2
20260904044617 68 0 0.0 0.0 0.00 0.00 0.00 83 1019.1
20260904044003 68 0 0.0 0.0 0.00 0.00 0.00 84 1019.1
20260904043816 68 0 0.0 0.0 0.00 0.00 0.00 84 1018.9
20260904043415 68 275 0.0 0.0 0.00 0.00 0.00 84 1018.9
20260904042803 68 275 0.0 1.0 0.00 0.00 0.00 84 1019.0
20260904042403 68 276 0.0 1.0 0.00 0.00 0.00 84 1019.1
20260904042003 68 0 0.0 0.0 0.00 0.00 0.00 84 1019.0
20260904041603 68 0 0.0 0.0 0.00 0.00 0.00 83 1019.0
20260904041203 69 0 0.0 0.0 0.00 0.00 0.00 82 1018.9
20260904040803 69 276 0.0 1.0 0.00 0.00 0.00 82 1018.9
20260904040616 69 277 0.0 1.0 0.00 0.00 0.00 82 1018.8
20260904040215 69 278 0.0 2.0 0.00 0.00 0.00 82 1018.8
20260904035603 69 277 0.0 2.0 0.00 0.00 0.00 82 1019.0
20260904035203 69 277 1.0 2.0 0.00 0.00 0.00 82 1018.9
20260904034803 69 274 1.0 2.0 0.00 0.00 0.00 82 1019.1
20260904034403 69 273 1.0 3.0 0.00 0.00 0.00 82 1019.0
20260904034003 68 273 1.0 3.0 0.00 0.00 0.00 82 1018.9
20260904033603 68 256 0.0 2.0 0.00 0.00 0.00 83 1019.1
20260904033203 68 0 0.0 0.0 0.00 0.00 0.00 83 1018.9
20260904032803 68 0 0.0 0.0 0.00 0.00 0.00 84 1018.8
20260904032403 67 0 0.0 0.0 0.00 0.00 0.00 84 1018.9
20260904032003 67 0 0.0 0.0 0.00 0.00 0.00 84 1018.8
20260904031603 67 0 0.0 0.0 0.00 0.00 0.00 84 1018.8
20260904031413 67 0 0.0 0.0 0.00 0.00 0.00 84 1018.9
20260904030803 68 0 0.0 0.0 0.00 0.00 0.00 84 1018.7
20260904030403 68 0 0.0 0.0 0.00 0.00 0.00 83 1018.8
20260904030216 68 0 0.0 0.0 0.00 0.00 0.00 83 1018.8
20260904025603 68 0 0.0 0.0 0.00 0.00 0.00 84 1018.8
20260904025203 68 0 0.0 0.0 0.00 0.00 0.00 84 1018.7
20260904024803 68 0 0.0 0.0 0.00 0.00 0.00 83 1018.8
20260904024403 68 0 0.0 0.0 0.00 0.00 0.00 82 1018.6
20260904024003 68 0 0.0 0.0 0.00 0.00 0.00 82 1018.8
20260904023603 68 0 0.0 0.0 0.00 0.00 0.00 81 1018.9
20260904023203 69 0 0.0 0.0 0.00 0.00 0.00 81 1018.9
20260904022803 69 0 0.0 0.0 0.00 0.00 0.00 80 1018.8
20260904022403 69 0 0.0 0.0 0.00 0.00 0.00 81 1018.7
20260904022003 69 0 0.0 0.0 0.00 0.00 0.00 81 1018.8
20260904021603 69 0 0.0 0.0 0.00 0.00 0.00 80 1019.0
20260904021203 69 0 0.0 0.0 0.00 0.00 0.00 80 1018.7
20260904020803 69 0 0.0 0.0 0.00 0.00 0.00 81 1018.7
20260904020612 69 0 0.0 0.0 0.00 0.00 0.00 81 1018.9
20260904020003 69 0 0.0 0.0 0.00 0.00 0.00 80 1018.7
20260904015603 69 0 0.0 0.0 0.00 0.00 0.00 81 1018.6
20260904015415 69 0 0.0 0.0 0.00 0.00 0.00 80 1018.7
20260904014803 69 0 0.0 0.0 0.00 0.00 0.00 81 1018.7
20260904014403 69 0 0.0 0.0 0.00 0.00 0.00 80 1018.6
20260904014213 69 0 0.0 0.0 0.00 0.00 0.00 80 1018.7
20260904013813 69 0 0.0 0.0 0.00 0.00 0.00 80 1018.5
20260904013203 69 0 0.0 0.0 0.00 0.00 0.00 80 1018.8
20260904012803 69 0 0.0 0.0 0.00 0.00 0.00 80 1018.6
20260904012403 69 0 0.0 0.0 0.00 0.00 0.00 80 1018.5
20260904012003 69 0 0.0 0.0 0.00 0.00 0.00 80 1018.7
20260904011603 69 0 0.0 0.0 0.00 0.00 0.00 80 1018.7
20260904011414 69 0 0.0 0.0 0.00 0.00 0.00 80 1018.7
20260904011013 69 0 0.0 0.0 0.00 0.00 0.00 81 1018.8
20260904010403 69 0 0.0 0.0 0.00 0.00 0.00 81 1018.8
20260904010003 70 0 0.0 0.0 0.00 0.00 0.00 80 1018.6
20260904005817 70 0 0.0 0.0 0.00 0.00 0.00 80 1018.9
20260904005203 70 0 0.0 0.0 0.00 0.00 0.00 81 1018.7
20260904004803 69 0 0.0 0.0 0.00 0.00 0.00 81 1018.8
20260904004403 69 0 0.0 0.0 0.00 0.00 0.00 81 1018.9
20260904004003 69 0 0.0 0.0 0.00 0.00 0.00 81 1018.8
20260904003603 70 0 0.0 0.0 0.00 0.00 0.00 82 1018.7
20260904003203 70 0 0.0 0.0 0.00 0.00 0.00 81 1018.7
20260904002803 70 0 0.0 0.0 0.00 0.00 0.00 81 1018.6
20260904002403 69 0 0.0 0.0 0.00 0.00 0.00 81 1018.9
20260904002003 70 0 0.0 0.0 0.00 0.00 0.00 81 1018.9
20260904001603 70 0 0.0 0.0 0.00 0.00 0.00 82 1018.8
20260904001203 69 0 0.0 0.0 0.00 0.00 0.00 83 1018.9
20260904000803 69 0 0.0 0.0 0.00 0.00 0.00 83 1019.0
20260904000403 69 0 0.0 0.0 0.00 0.00 0.00 83 1018.8
20260904000213 70 0 0.0 0.0 0.00 0.00 0.00 83 1018.8
20260903235603 70 0 0.0 0.0 0.00 0.00 0.00 83 1018.8
20260903235203 70 0 0.0 0.0 0.00 0.00 0.00 83 1019.0
20260903234803 70 0 0.0 0.0 0.00 0.00 0.00 82 1018.8
20260903234615 70 0 0.0 0.0 0.00 0.00 0.00 82 1018.7
20260903234215 70 0 0.0 0.0 0.00 0.00 0.00 83 1019.0
20260903233603 70 242 0.0 1.0 0.00 0.00 0.00 82 1018.9
20260903233203 70 242 0.0 1.0 0.00 0.00 0.00 81 1019.0
20260903232803 71 242 1.0 1.0 0.00 0.00 0.00 81 1018.8
20260903232403 70 241 0.0 1.0 0.00 0.00 0.00 80 1018.9
20260903232004 71 0 0.0 0.0 0.00 0.00 0.00 80 1019.0
20260903231603 71 0 0.0 0.0 0.00 0.00 0.00 79 1019.1
20260903231203 71 219 0.0 1.0 0.00 0.00 0.00 79 1019.1
20260903230803 71 219 0.0 1.0 0.00 0.00 0.00 78 1019.1
20260903230403 71 240 0.0 2.0 0.00 0.00 0.00 78 1019.1
20260903230004 71 332 0.0 2.0 0.00 0.00 0.00 78 1019.0
20260903225813 71 332 0.0 2.0 0.00 0.00 0.00 78 1019.2
20260903225203 71 2 0.0 1.0 0.00 0.00 0.00 77 1019.3
20260903224803 72 0 0.0 0.0 0.00 0.00 0.00 77 1019.2
20260903224403 72 3 0.0 0.0 0.00 0.00 0.00 76 1018.9
20260903224003 72 2 0.0 2.0 0.00 0.00 0.00 76 1019.0
20260903223603 72 1 1.0 2.0 0.00 0.00 0.00 76 1019.0
20260903223203 72 8 1.0 2.0 0.00 0.00 0.00 76 1018.8
20260903223013 71 11 1.0 2.0 0.00 0.00 0.00 77 1019.0
20260903222403 71 12 1.0 3.0 0.00 0.00 0.00 79 1018.9
20260903222003 72 7 1.0 3.0 0.00 0.00 0.00 78 1018.7
20260903221603 73 359 0.0 3.0 0.00 0.00 0.00 74 1018.9
20260903221203 73 0 0.0 0.0 0.00 0.00 0.00 75 1018.8
20260903220803 73 0 0.0 0.0 0.00 0.00 0.00 74 1018.5
20260903220403 73 0 0.0 0.0 0.00 0.00 0.00 73 1018.7
20260903220004 73 0 0.0 0.0 0.00 0.00 0.00 72 1018.6
20260903215813 74 0 0.0 0.0 0.00 0.00 0.00 72 1018.7
20260903215203 74 208 0.0 1.0 0.00 0.00 0.00 71 1018.6
20260903214803 75 202 0.0 2.0 0.00 0.00 0.00 70 1018.3
20260903214403 75 202 0.0 2.0 0.00 0.00 0.00 69 1018.6
20260903214216 75 201 0.0 2.0 0.00 0.00 0.00 69 1018.5
20260903213815 74 0 0.0 0.0 0.00 0.00 0.00 68 1018.3
20260903213203 74 0 0.0 0.0 0.00 0.00 0.00 68 1018.4
20260903213014 73 0 0.0 0.0 0.00 0.00 0.00 69 1018.5
20260903212403 73 0 0.0 0.0 0.00 0.00 0.00 71 1018.3
20260903212003 73 0 0.0 0.0 0.00 0.00 0.00 70 1018.3
20260903211603 72 0 0.0 0.0 0.00 0.00 0.00 71 1018.4
20260903211203 72 0 0.0 0.0 0.00 0.00 0.00 71 1018.5
20260903210803 72 0 0.0 0.0 0.00 0.00 0.00 71 1018.3
20260903210403 72 0 0.0 0.0 0.00 0.00 0.00 73 1018.4
20260903210003 72 0 0.0 0.0 0.00 0.00 0.00 73 1018.5
20260903205603 73 0 0.0 0.0 0.00 0.00 0.00 71 1018.4
20260903205203 73 0 0.0 0.0 0.00 0.00 0.00 70 1018.4
20260903204803 74 0 0.0 0.0 0.00 0.00 0.00 68 1018.6
20260903204403 74 0 0.0 0.0 0.00 0.00 0.00 69 1018.4
20260903204004 74 0 0.0 0.0 0.00 0.00 0.00 65 1018.4
20260903203603 74 0 0.0 0.0 0.00 0.00 0.00 65 1018.6
20260903203203 74 0 0.0 0.0 0.00 0.00 0.00 66 1018.5
20260903202803 75 0 0.0 0.0 0.00 0.00 0.00 66 1018.4
20260903202403 75 0 0.0 0.0 0.00 0.00 0.00 66 1018.5
20260903202003 76 0 0.0 0.0 0.00 0.00 0.00 65 1018.3
20260903201603 76 0 0.0 0.0 0.00 0.00 0.00 61 1018.3
20260903201417 76 0 0.0 0.0 0.00 0.00 0.00 61 1018.4
20260903200803 76 0 0.0 0.0 0.00 0.00 0.00 60 1018.1
20260903200403 76 0 0.0 0.0 0.00 0.00 0.00 63 1018.3
20260903200003 76 0 0.0 0.0 0.00 0.00 0.00 59 1018.2
20260903195603 76 0 0.0 0.0 0.00 0.00 0.00 59 1018.3
20260903195203 77 0 0.0 0.0 0.00 0.00 0.00 58 1018.2
20260903194803 77 0 0.0 0.0 0.00 0.00 0.00 58 1018.2
20260903194403 77 0 0.0 0.0 0.00 0.00 0.00 59 1018.3
20260903194003 77 0 0.0 0.0 0.00 0.00 0.00 58 1018.4
20260903193603 77 0 0.0 0.0 0.00 0.00 0.00 58 1018.1
20260903193416 77 0 0.0 0.0 0.00 0.00 0.00 58 1018.3
20260903192803 77 163 0.0 1.0 0.00 0.00 0.00 59 1018.2
20260903192403 77 163 1.0 1.0 0.00 0.00 0.00 59 1018.1
20260903192214 77 163 1.0 2.0 0.00 0.00 0.00 58 1018.0
20260903191603 78 159 2.0 2.0 0.00 0.00 0.00 58 1018.0
20260903191413 78 158 2.0 2.0 0.00 0.00 0.00 58 1018.1
20260903190803 78 158 2.0 3.0 0.00 0.00 0.00 56 1017.9
20260903190403 79 157 2.0 3.0 0.00 0.00 0.00 57 1018.1
20260903190003 79 157 1.0 2.0 0.00 0.00 0.00 56 1017.9
20260903185815 79 158 1.0 2.0 0.00 0.00 0.00 56 1017.9
20260903185415 78 160 1.0 3.0 0.00 0.00 0.00 57 1017.9
20260903184803 79 163 1.0 3.0 0.00 0.00 0.00 58 1018.1
20260903184613 78 166 1.0 3.0 0.00 0.00 0.00 57 1018.1
20260903184003 78 173 0.0 2.0 0.00 0.00 0.00 58 1017.9
20260903183817 78 169 0.0 2.0 0.00 0.00 0.00 59 1017.9
20260903183203 78 167 0.0 1.0 0.00 0.00 0.00 58 1017.9
20260903183016 79 167 0.0 1.0 0.00 0.00 0.00 59 1017.8
20260903182403 79 163 1.0 3.0 0.00 0.00 0.00 58 1017.7
20260903182003 79 166 1.0 3.0 0.00 0.00 0.00 57 1017.8
20260903181603 79 168 1.0 3.0 0.00 0.00 0.00 57 1017.8
20260903181204 79 172 0.0 2.0 0.00 0.00 0.00 58 1017.7
20260903180803 79 171 0.0 2.0 0.00 0.00 0.00 57 1017.8
20260903180403 79 170 0.0 1.0 0.00 0.00 0.00 58 1017.6
20260903180004 80 162 0.0 2.0 0.00 0.00 0.00 56 1017.5
20260903175603 80 159 1.0 2.0 0.00 0.00 0.00 55 1017.7
20260903175203 80 156 0.0 2.0 0.00 0.00 0.00 55 1017.6
20260903174803 81 149 0.0 1.0 0.00 0.00 0.00 54 1017.8
20260903174403 81 163 1.0 2.0 0.00 0.00 0.00 53 1017.6
20260903174003 81 163 1.0 2.0 0.00 0.00 0.00 53 1017.6
20260903173813 81 165 0.0 2.0 0.00 0.00 0.00 53 1017.5
20260903173203 82 155 0.0 1.0 0.00 0.00 0.00 53 1017.5
20260903172803 82 160 1.0 2.0 0.00 0.00 0.00 52 1017.6
20260903172403 83 155 1.0 2.0 0.00 0.00 0.00 51 1017.6
20260903172003 83 154 1.0 2.0 0.00 0.00 0.00 50 1017.9
20260903171603 84 99 0.0 2.0 0.00 0.00 0.00 50 1017.8
20260903171203 84 80 0.0 2.0 0.00 0.00 0.00 49 1017.7
20260903170803 84 86 1.0 2.0 0.00 0.00 0.00 47 1017.7
20260903170403 85 90 1.0 2.0 0.00 0.00 0.00 48 1017.7
20260903170003 85 89 2.0 3.0 0.00 0.00 0.00 48 1017.5
20260903165603 85 88 2.0 4.0 0.00 0.00 0.00 47 1017.7
20260903165416 85 88 2.0 4.0 0.00 0.00 0.00 48 1017.7
20260903164803 85 95 2.0 4.0 0.00 0.00 0.00 47 1017.6
20260903164403 86 94 2.0 4.0 0.00 0.00 0.00 46 1017.9
20260903164214 86 93 2.0 4.0 0.00 0.00 0.00 46 1017.7
20260903163603 86 86 2.0 4.0 0.00 0.00 0.00 45 1017.8
20260903163203 87 84 2.0 6.0 0.00 0.00 0.00 45 1017.6
20260903162804 87 85 2.0 6.0 0.00 0.00 0.00 46 1017.7
20260903162617 86 87 2.0 6.0 0.00 0.00 0.00 46 1017.6
20260903162216 86 84 1.0 3.0 0.00 0.00 0.00 46 1017.6
20260903161603 87 73 0.0 2.0 0.00 0.00 0.00 45 1017.6
20260903161203 87 75 0.0 1.0 0.00 0.00 0.00 44 1017.4
20260903160803 88 124 1.0 6.0 0.00 0.00 0.00 43 1017.3
20260903160403 88 141 3.0 8.0 0.00 0.00 0.00 42 1017.4
20260903160213 88 143 3.0 8.0 0.00 0.00 0.00 42 1017.3
20260903155603 89 145 3.0 6.0 0.00 0.00 0.00 41 1017.6
20260903155203 89 146 2.0 6.0 0.00 0.00 0.00 42 1017.5
20260903155016 89 151 2.0 6.0 0.00 0.00 0.00 42 1017.3
20260903154403 89 152 3.0 6.0 0.00 0.00 0.00 41 1017.5
20260903154003 89 158 3.0 7.0 0.00 0.00 0.00 41 1017.2
20260903153603 89 161 3.0 7.0 0.00 0.00 0.00 41 1017.2
20260903153203 89 160 4.0 8.0 0.00 0.00 0.00 41 1017.5
20260903152803 89 158 4.0 8.0 0.00 0.00 0.00 41 1017.3
20260903152403 89 156 3.0 7.0 0.00 0.00 0.00 41 1017.2
20260903152003 90 143 2.0 6.0 0.00 0.00 0.00 41 1017.3
20260903151603 89 152 3.0 6.0 0.00 0.00 0.00 43 1017.0
20260903151203 89 152 3.0 6.0 0.00 0.00 0.00 43 1017.3
20260903150803 88 153 3.0 5.0 0.00 0.00 0.00 44 1017.3
20260903150403 89 146 3.0 5.0 0.00 0.00 0.00 42 1017.3
20260903150003 89 128 3.0 8.0 0.00 0.00 0.00 41 1017.4
20260903145603 89 103 3.0 8.0 0.00 0.00 0.00 42 1017.5
20260903145417 90 101 2.0 8.0 0.00 0.00 0.00 42 1017.5
20260903144803 90 103 3.0 7.0 0.00 0.00 0.00 42 1017.7
20260903144616 90 102 2.0 7.0 0.00 0.00 0.00 41 1017.7
20260903144003 90 113 2.0 7.0 0.00 0.00 0.00 42 1017.8
20260903143603 90 102 2.0 4.0 0.00 0.00 0.00 41 1017.8
20260903143203 90 96 3.0 4.0 0.00 0.00 0.00 40 1017.8
20260903142803 89 85 3.0 5.0 0.00 0.00 0.00 42 1018.0
20260903142403 89 76 3.0 8.0 0.00 0.00 0.00 44 1018.0
20260903142003 90 70 3.0 8.0 0.00 0.00 0.00 41 1018.0
20260903141603 90 83 3.0 6.0 0.00 0.00 0.00 40 1018.0
20260903141203 90 105 2.0 6.0 0.00 0.00 0.00 43 1018.2
20260903140803 90 106 2.0 7.0 0.00 0.00 0.00 41 1018.2
20260903140403 90 91 3.0 7.0 0.00 0.00 0.00 42 1018.1
20260903140003 90 82 4.0 7.0 0.00 0.00 0.00 42 1018.0
20260903135603 90 91 3.0 8.0 0.00 0.00 0.00 42 1018.1
20260903135203 91 95 3.0 8.0 0.00 0.00 0.00 41 1018.0
20260903134803 91 116 2.0 8.0 0.00 0.00 0.00 40 1018.1
20260903134617 91 107 2.0 5.0 0.00 0.00 0.00 40 1018.1
20260903134003 90 109 3.0 5.0 0.00 0.00 0.00 40 1018.3
20260903133603 91 124 3.0 6.0 0.00 0.00 0.00 40 1018.1
20260903133203 91 121 2.0 6.0 0.00 0.00 0.00 40 1018.1
20260903132803 91 120 2.0 7.0 0.00 0.00 0.00 40 1018.1
20260903132613 91 143 2.0 7.0 0.00 0.00 0.00 39 1018.1
20260903132003 92 163 2.0 6.0 0.00 0.00 0.00 39 1018.1
20260903131603 92 148 2.0 6.0 0.00 0.00 0.00 39 1018.1
20260903131417 92 138 2.0 6.0 0.00 0.00 0.00 40 1018.1
20260903131016 92 99 2.0 4.0 0.00 0.00 0.00 39 1018.3
20260903130403 91 83 2.0 6.0 0.00 0.00 0.00 41 1018.2
20260903130004 92 85 2.0 6.0 0.00 0.00 0.00 38 1018.4
20260903125603 91 98 2.0 4.0 0.00 0.00 0.00 39 1018.2
20260903125203 92 175 2.0 4.0 0.00 0.00 0.00 39 1018.5
20260903124803 92 228 2.0 5.0 0.00 0.00 0.00 38 1018.4
20260903124403 91 214 3.0 6.0 0.00 0.00 0.00 43 1018.6
20260903124217 90 210 2.0 6.0 0.00 0.00 0.00 43 1018.5
20260903123603 92 239 1.0 4.0 0.00 0.00 0.00 40 1018.6
20260903123203 91 309 2.0 3.0 0.00 0.00 0.00 42 1018.7
20260903122803 90 355 3.0 4.0 0.00 0.00 0.00 41 1018.7
20260903122403 89 27 3.0 4.0 0.00 0.00 0.00 42 1018.8
20260903122003 90 71 3.0 6.0 0.00 0.00 0.00 41 1018.7
20260903121603 90 100 3.0 6.0 0.00 0.00 0.00 40 1018.8
20260903121203 90 79 3.0 4.0 0.00 0.00 0.00 42 1018.7
20260903121017 90 70 3.0 6.0 0.00 0.00 0.00 41 1018.9
20260903120403 90 85 2.0 6.0 0.00 0.00 0.00 40 1018.7
20260903120003 91 143 2.0 4.0 0.00 0.00 0.00 42 1018.6
20260903115603 90 162 2.0 4.0 0.00 0.00 0.00 42 1018.5
20260903115414 90 152 2.0 4.0 0.00 0.00 0.00 40 1018.7
20260903114803 90 151 2.0 5.0 0.00 0.00 0.00 40 1018.8
20260903114403 90 160 3.0 8.0 0.00 0.00 0.00 42 1018.7
20260903114003 90 175 3.0 8.0 0.00 0.00 0.00 42 1018.7
20260903113603 91 197 2.0 6.0 0.00 0.00 0.00 41 1018.7
20260903113203 91 194 2.0 6.0 0.00 0.00 0.00 41 1018.9
20260903112803 90 165 2.0 4.0 0.00 0.00 0.00 42 1019.1
20260903112403 89 160 2.0 4.0 0.00 0.00 0.00 41 1019.1
20260903112003 90 120 2.0 6.0 0.00 0.00 0.00 42 1019.1
20260903111603 90 104 3.0 6.0 0.00 0.00 0.00 41 1019.0
20260903111203 90 90 2.0 6.0 0.00 0.00 0.00 40 1018.9
20260903110803 90 208 1.0 4.0 0.00 0.00 0.00 41 1019.1
20260903110617 89 268 1.0 4.0 0.00 0.00 0.00 40 1019.1
20260903110003 89 18 2.0 5.0 0.00 0.00 0.00 41 1018.9
20260903105603 88 38 3.0 6.0 0.00 0.00 0.00 44 1019.1
20260903105415 88 44 3.0 6.0 0.00 0.00 0.00 44 1019.3
20260903104803 88 68 4.0 8.0 0.00 0.00 0.00 44 1019.0
20260903104403 88 61 3.0 8.0 0.00 0.00 0.00 43 1019.3
20260903104213 88 55 3.0 8.0 0.00 0.00 0.00 42 1019.4
20260903103812 89 22 3.0 8.0 0.00 0.00 0.00 41 1019.1